Location: Unspecified
(48.8582°N, 2.2947°E)
Time: 08:58:23
(UTC+02:00)

ISS - Pass Details

Date: 01 April 2019
Orbit: 408 x 410 km, 51.6° (Epoch: 24 April)

Event Time Altitude Azimuth Distance (km) Brightness Sun altitude
Rises 23:21:02 0° 289° (WNW) 2,339 1.0 -26.9°
Reaches altitude 10° 23:23:14 10° 279° (W) 1,475 -0.4 -27.1°
Enters shadow 23:23:55 15° 273° (W) 1,227 -0.9 -27.2°
